"Time","Value","Approval","myLocation"
"2023-05-07 00:00",23.275,"Approved","OW261"
"2023-05-07 01:00",23.327,"Approved","OW261"
"2023-05-07 02:00",23.279,"Approved","OW261"
"2023-05-07 03:00",23.308,"Approved","OW261"
"2023-05-07 04:00",23.323,"Approved","OW261"
"2023-05-07 05:00",23.276,"Approved","OW261"
"2023-05-07 06:00",23.314,"Approved","OW261"
"2023-05-07 07:00",23.326,"Approved","OW261"
"2023-05-07 08:00",23.337,"Approved","OW261"
"2023-05-07 09:00",23.273,"Approved","OW261"
"2023-05-07 10:00",23.324,"Approved","OW261"
"2023-05-07 11:00",23.327,"Approved","OW261"
"2023-05-07 12:00",23.339,"Approved","OW261"
"2023-05-07 13:00",23.283,"Approved","OW261"
"2023-05-07 14:00",23.328,"Approved","OW261"
"2023-05-07 15:00",23.331,"Approved","OW261"
"2023-05-07 16:00",23.331,"Approved","OW261"
"2023-05-07 17:00",23.273,"Approved","OW261"
"2023-05-07 18:00",23.319,"Approved","OW261"
"2023-05-07 19:00",23.334,"Approved","OW261"
"2023-05-07 20:00",23.29,"Approved","OW261"
"2023-05-07 21:00",23.314,"Approved","OW261"
"2023-05-07 22:00",23.326,"Approved","OW261"
"2023-05-07 23:00",23.288,"Approved","OW261"
"2023-05-08 00:00",23.267,"Approved","OW261"
"2023-05-08 01:00",23.323,"Approved","OW261"
"2023-05-08 02:00",23.283,"Approved","OW261"
"2023-05-08 03:00",23.265,"Approved","OW261"
"2023-05-08 04:00",23.322,"Approved","OW261"
"2023-05-08 05:00",23.284,"Approved","OW261"
"2023-05-08 06:00",23.298,"Approved","OW261"
"2023-05-08 07:00",23.317,"Approved","OW261"
"2023-05-08 08:00",23.328,"Approved","OW261"
"2023-05-08 09:00",23.267,"Approved","OW261"
"2023-05-08 10:00",23.311,"Approved","OW261"
"2023-05-08 11:00",23.313,"Approved","OW261"
"2023-05-08 12:00",23.267,"Approved","OW261"
"2023-05-08 13:00",23.304,"Approved","OW261"
"2023-05-08 14:00",23.311,"Approved","OW261"
"2023-05-08 15:00",23.275,"Approved","OW261"
"2023-05-08 16:00",23.299,"Approved","OW261"
"2023-05-08 17:00",23.312,"Approved","OW261"
"2023-05-08 18:00",23.317,"Approved","OW261"
"2023-05-08 19:00",23.264,"Approved","OW261"
"2023-05-08 20:00",23.307,"Approved","OW261"
"2023-05-08 21:00",23.319,"Approved","OW261"
"2023-05-08 22:00",23.269,"Approved","OW261"
"2023-05-08 23:00",23.298,"Approved","OW261"
"2023-05-09 00:00",23.311,"Approved","OW261"
"2023-05-09 01:00",23.257,"Approved","OW261"
"2023-05-09 02:00",23.302,"Approved","OW261"
"2023-05-09 03:00",23.314,"Approved","OW261"
"2023-05-09 04:00",23.258,"Approved","OW261"
"2023-05-09 05:00",23.305,"Approved","OW261"
"2023-05-09 06:00",23.316,"Approved","OW261"
"2023-05-09 07:00",23.32,"Approved","OW261"
"2023-05-09 08:00",23.254,"Approved","OW261"
"2023-05-09 09:00",23.309,"Approved","OW261"
"2023-05-09 10:00",23.311,"Approved","OW261"
"2023-05-09 11:00",23.257,"Approved","OW261"
"2023-05-09 12:00",23.298,"Approved","OW261"
"2023-05-09 13:00",23.308,"Approved","OW261"
"2023-05-09 14:00",23.249,"Approved","OW261"
"2023-05-09 15:00",23.295,"Approved","OW261"
"2023-05-09 16:00",23.304,"Approved","OW261"
"2023-05-09 17:00",23.308,"Approved","OW261"
"2023-05-09 18:00",23.247,"Approved","OW261"
"2023-05-09 19:00",23.303,"Approved","OW261"
"2023-05-09 20:00",23.309,"Approved","OW261"
"2023-05-09 21:00",23.259,"Approved","OW261"
"2023-05-09 22:00",23.3,"Approved","OW261"
"2023-05-09 23:00",23.302,"Approved","OW261"
"2023-05-10 00:00",23.245,"Approved","OW261"
"2023-05-10 01:00",23.299,"Approved","OW261"
"2023-05-10 02:00",23.301,"Approved","OW261"
"2023-05-10 03:00",23.244,"Approved","OW261"
"2023-05-10 04:00",23.29,"Approved","OW261"
"2023-05-10 05:00",23.303,"Approved","OW261"
"2023-05-10 06:00",23.243,"Approved","OW261"
"2023-05-10 07:00",23.293,"Approved","OW261"
"2023-05-10 08:00",23.3,"Approved","OW261"
"2023-05-10 09:00",23.258,"Approved","OW261"
"2023-05-10 10:00",23.281,"Approved","OW261"
"2023-05-10 11:00",23.29,"Approved","OW261"
"2023-05-10 12:00",23.293,"Approved","OW261"
"2023-05-10 13:00",23.232,"Approved","OW261"
"2023-05-10 14:00",23.286,"Approved","OW261"
"2023-05-10 15:00",23.291,"Approved","OW261"
"2023-05-10 16:00",23.24,"Approved","OW261"
"2023-05-10 17:00",23.286,"Approved","OW261"
"2023-05-10 18:00",23.291,"Approved","OW261"
"2023-05-10 19:00",23.299,"Approved","OW261"
"2023-05-10 20:00",23.238,"Approved","OW261"
"2023-05-10 21:00",23.292,"Approved","OW261"
"2023-05-10 22:00",23.296,"Approved","OW261"
"2023-05-10 23:00",23.238,"Approved","OW261"
"2023-05-11 00:00",23.287,"Approved","OW261"
"2023-05-11 01:00",23.291,"Approved","OW261"
"2023-05-11 02:00",23.234,"Approved","OW261"
"2023-05-11 03:00",23.281,"Approved","OW261"
"2023-05-11 04:00",23.291,"Approved","OW261"
"2023-05-11 05:00",23.234,"Approved","OW261"
"2023-05-11 06:00",23.284,"Approved","OW261"
"2023-05-11 07:00",23.294,"Approved","OW261"
"2023-05-11 08:00",23.246,"Approved","OW261"
"2023-05-11 09:00",23.269,"Approved","OW261"
"2023-05-11 10:00",23.287,"Approved","OW261"
"2023-05-11 11:00",23.288,"Approved","OW261"
"2023-05-11 12:00",23.222,"Approved","OW261"
"2023-05-11 13:00",23.274,"Approved","OW261"
"2023-05-11 14:00",23.281,"Approved","OW261"
"2023-05-11 15:00",23.222,"Approved","OW261"
"2023-05-11 16:00",23.277,"Approved","OW261"
"2023-05-11 17:00",23.28,"Approved","OW261"
"2023-05-11 18:00",23.284,"Approved","OW261"
"2023-05-11 19:00",23.297,"Approved","OW261"
"2023-05-11 20:00",23.244,"Approved","OW261"
"2023-05-11 21:00",23.287,"Approved","OW261"
"2023-05-11 22:00",23.293,"Approved","OW261"
"2023-05-11 23:00",23.245,"Approved","OW261"
"2023-05-12 00:00",23.284,"Approved","OW261"
"2023-05-12 01:00",23.296,"Approved","OW261"
"2023-05-12 02:00",23.234,"Approved","OW261"
"2023-05-12 03:00",23.28,"Approved","OW261"
"2023-05-12 04:00",23.284,"Approved","OW261"
"2023-05-12 05:00",23.227,"Approved","OW261"
"2023-05-12 06:00",23.285,"Approved","OW261"
"2023-05-12 07:00",23.286,"Approved","OW261"
"2023-05-12 08:00",23.234,"Approved","OW261"
"2023-05-12 09:00",23.27,"Approved","OW261"
"2023-05-12 10:00",23.281,"Approved","OW261"
"2023-05-12 11:00",23.236,"Approved","OW261"
"2023-05-12 12:00",23.256,"Approved","OW261"
"2023-05-12 13:00",23.277,"Approved","OW261"
"2023-05-12 14:00",23.28,"Approved","OW261"
"2023-05-12 15:00",23.218,"Approved","OW261"
"2023-05-12 16:00",23.275,"Approved","OW261"
"2023-05-12 17:00",23.284,"Approved","OW261"
"2023-05-12 18:00",23.233,"Approved","OW261"
"2023-05-12 19:00",23.271,"Approved","OW261"
"2023-05-12 20:00",23.282,"Approved","OW261"
"2023-05-12 21:00",23.292,"Approved","OW261"
"2023-05-12 22:00",23.29,"Approved","OW261"
"2023-05-12 23:00",23.236,"Approved","OW261"
"2023-05-13 00:00",23.278,"Approved","OW261"
"2023-05-13 01:00",23.291,"Approved","OW261"
"2023-05-13 02:00",23.229,"Approved","OW261"
"2023-05-13 03:00",23.269,"Approved","OW261"
"2023-05-13 04:00",23.28,"Approved","OW261"
"2023-05-13 05:00",23.221,"Approved","OW261"
"2023-05-13 06:00",23.274,"Approved","OW261"
"2023-05-13 07:00",23.281,"Approved","OW261"
"2023-05-13 08:00",23.284,"Approved","OW261"
"2023-05-13 09:00",23.231,"Approved","OW261"
"2023-05-13 10:00",23.28,"Approved","OW261"
"2023-05-13 11:00",23.274,"Approved","OW261"
"2023-05-13 12:00",23.278,"Approved","OW261"
"2023-05-13 13:00",23.28,"Approved","OW261"
"2023-05-13 14:00",23.284,"Approved","OW261"
"2023-05-13 15:00",23.283,"Approved","OW261"
"2023-05-13 16:00",23.283,"Approved","OW261"
"2023-05-13 17:00",23.284,"Approved","OW261"
"2023-05-13 18:00",23.288,"Approved","OW261"
"2023-05-13 19:00",23.288,"Approved","OW261"
"2023-05-13 20:00",23.294,"Approved","OW261"
"2023-05-13 21:00",23.297,"Approved","OW261"
"2023-05-13 22:00",23.298,"Approved","OW261"
"2023-05-13 23:00",23.238,"Approved","OW261"
"2023-05-14 00:00",23.286,"Approved","OW261"
"2023-05-14 01:00",23.289,"Approved","OW261"
"2023-05-14 02:00",23.289,"Approved","OW261"
"2023-05-14 03:00",23.291,"Approved","OW261"
"2023-05-14 04:00",23.238,"Approved","OW261"
"2023-05-14 05:00",23.28,"Approved","OW261"
"2023-05-14 06:00",23.285,"Approved","OW261"
"2023-05-14 07:00",23.289,"Approved","OW261"
"2023-05-14 08:00",23.284,"Approved","OW261"
"2023-05-14 09:00",23.283,"Approved","OW261"
"2023-05-14 10:00",23.287,"Approved","OW261"
"2023-05-14 11:00",23.285,"Approved","OW261"
"2023-05-14 12:00",23.286,"Approved","OW261"
"2023-05-14 13:00",23.279,"Approved","OW261"
"2023-05-14 14:00",23.281,"Approved","OW261"
"2023-05-14 15:00",23.28,"Approved","OW261"
"2023-05-14 16:00",23.282,"Approved","OW261"
"2023-05-14 17:00",23.217,"Approved","OW261"
"2023-05-14 18:00",23.27,"Approved","OW261"
"2023-05-14 19:00",23.277,"Approved","OW261"
"2023-05-14 20:00",23.278,"Approved","OW261"
"2023-05-14 21:00",23.284,"Approved","OW261"
"2023-05-14 22:00",23.241,"Approved","OW261"
"2023-05-14 23:00",23.214,"Approved","OW261"
"2023-05-15 00:00",23.272,"Approved","OW261"
"2023-05-15 01:00",23.226,"Approved","OW261"
"2023-05-15 02:00",23.21,"Approved","OW261"
"2023-05-15 03:00",23.262,"Approved","OW261"
"2023-05-15 04:00",23.219,"Approved","OW261"
"2023-05-15 05:00",23.244,"Approved","OW261"
"2023-05-15 06:00",23.262,"Approved","OW261"
"2023-05-15 07:00",23.266,"Approved","OW261"
"2023-05-15 08:00",23.214,"Approved","OW261"
"2023-05-15 09:00",23.25,"Approved","OW261"
"2023-05-15 10:00",23.255,"Approved","OW261"
"2023-05-15 11:00",23.256,"Approved","OW261"
"2023-05-15 12:00",23.197,"Approved","OW261"
"2023-05-15 13:00",23.239,"Approved","OW261"
"2023-05-15 14:00",23.249,"Approved","OW261"
"2023-05-15 15:00",23.254,"Approved","OW261"
"2023-05-15 16:00",23.255,"Approved","OW261"
"2023-05-15 17:00",23.253,"Approved","OW261"
"2023-05-15 18:00",23.259,"Approved","OW261"
"2023-05-15 19:00",23.211,"Approved","OW261"
"2023-05-15 20:00",23.249,"Approved","OW261"
"2023-05-15 21:00",23.257,"Approved","OW261"
"2023-05-15 22:00",23.213,"Approved","OW261"
"2023-05-15 23:00",23.219,"Approved","OW261"
"2023-05-16 00:00",23.256,"Approved","OW261"
"2023-05-16 01:00",23.204,"Approved","OW261"
"2023-05-16 02:00",23.192,"Approved","OW261"
"2023-05-16 03:00",23.251,"Approved","OW261"
"2023-05-16 04:00",23.2,"Approved","OW261"
"2023-05-16 05:00",23.24,"Approved","OW261"
"2023-05-16 06:00",23.248,"Approved","OW261"
"2023-05-16 07:00",23.251,"Approved","OW261"
"2023-05-16 08:00",23.185,"Approved","OW261"
"2023-05-16 09:00",23.242,"Approved","OW261"
"2023-05-16 11:00",23.186,"Approved","OW261"
"2023-05-16 12:00",23.223,"Approved","OW261"
"2023-05-16 13:00",23.229,"Approved","OW261"
"2023-05-16 14:00",23.231,"Approved","OW261"
"2023-05-16 15:00",23.163,"Approved","OW261"
"2023-05-16 16:00",23.225,"Approved","OW261"
"2023-05-16 17:00",23.229,"Approved","OW261"
"2023-05-16 18:00",23.236,"Approved","OW261"
"2023-05-16 19:00",23.236,"Approved","OW261"
"2023-05-16 20:00",23.195,"Approved","OW261"
"2023-05-16 21:00",23.231,"Approved","OW261"
"2023-05-16 22:00",23.234,"Approved","OW261"
"2023-05-16 23:00",23.197,"Approved","OW261"
"2023-05-17 00:00",23.17,"Approved","OW261"
"2023-05-17 01:00",23.224,"Approved","OW261"
"2023-05-17 02:00",23.175,"Approved","OW261"
"2023-05-17 03:00",23.167,"Approved","OW261"
"2023-05-17 04:00",23.22,"Approved","OW261"
"2023-05-17 05:00",23.171,"Approved","OW261"
"2023-05-17 06:00",23.208,"Approved","OW261"
"2023-05-17 07:00",23.214,"Approved","OW261"
"2023-05-17 08:00",23.223,"Approved","OW261"
"2023-05-17 09:00",23.157,"Approved","OW261"
"2023-05-17 10:00",23.208,"Approved","OW261"
"2023-05-17 11:00",23.212,"Approved","OW261"
"2023-05-17 12:00",23.151,"Approved","OW261"
"2023-05-17 13:00",23.197,"Approved","OW261"
"2023-05-17 14:00",23.205,"Approved","OW261"
"2023-05-17 15:00",23.204,"Approved","OW261"
"2023-05-17 16:00",23.142,"Approved","OW261"
"2023-05-17 17:00",23.197,"Approved","OW261"
"2023-05-17 18:00",23.204,"Approved","OW261"
"2023-05-17 19:00",23.213,"Approved","OW261"
"2023-05-17 20:00",23.167,"Approved","OW261"
"2023-05-17 21:00",23.204,"Approved","OW261"
"2023-05-17 22:00",23.215,"Approved","OW261"
"2023-05-17 23:00",23.154,"Approved","OW261"
"2023-05-18 00:00",23.2,"Approved","OW261"
"2023-05-18 01:00",23.209,"Approved","OW261"
"2023-05-18 02:00",23.152,"Approved","OW261"
"2023-05-18 03:00",23.198,"Approved","OW261"
"2023-05-18 04:00",23.204,"Approved","OW261"
"2023-05-18 05:00",23.152,"Approved","OW261"
"2023-05-18 06:00",23.198,"Approved","OW261"
"2023-05-18 07:00",23.205,"Approved","OW261"
"2023-05-18 08:00",23.207,"Approved","OW261"
"2023-05-18 09:00",23.149,"Approved","OW261"
"2023-05-18 10:00",23.197,"Approved","OW261"
"2023-05-18 11:00",23.196,"Approved","OW261"
"2023-05-18 12:00",23.167,"Approved","OW261"
"2023-05-18 13:00",23.138,"Approved","OW261"
"2023-05-18 14:00",23.189,"Approved","OW261"
"2023-05-18 15:00",23.193,"Approved","OW261"
"2023-05-18 16:00",23.2,"Approved","OW261"
"2023-05-18 17:00",23.137,"Approved","OW261"
"2023-05-18 18:00",23.195,"Approved","OW261"
"2023-05-18 19:00",23.2,"Approved","OW261"
"2023-05-18 20:00",23.209,"Approved","OW261"
"2023-05-18 21:00",23.162,"Approved","OW261"
"2023-05-18 22:00",23.192,"Approved","OW261"
"2023-05-18 23:00",23.204,"Approved","OW261"
"2023-05-19 00:00",23.153,"Approved","OW261"
"2023-05-19 01:00",23.135,"Approved","OW261"
"2023-05-19 02:00",23.195,"Approved","OW261"
"2023-05-19 03:00",23.148,"Approved","OW261"
"2023-05-19 04:00",23.181,"Approved","OW261"
"2023-05-19 05:00",23.195,"Approved","OW261"
"2023-05-19 06:00",23.203,"Approved","OW261"
"2023-05-19 07:00",23.134,"Approved","OW261"
"2023-05-19 08:00",23.193,"Approved","OW261"
"2023-05-19 09:00",23.201,"Approved","OW261"
"2023-05-19 10:00",23.134,"Approved","OW261"
"2023-05-19 11:00",23.185,"Approved","OW261"
"2023-05-19 12:00",23.187,"Approved","OW261"
"2023-05-19 13:00",23.131,"Approved","OW261"
"2023-05-19 14:00",23.181,"Approved","OW261"
"2023-05-19 15:00",23.18,"Approved","OW261"
"2023-05-19 16:00",23.183,"Approved","OW261"
"2023-05-19 17:00",23.13,"Approved","OW261"
"2023-05-19 18:00",23.18,"Approved","OW261"
"2023-05-19 19:00",23.182,"Approved","OW261"
"2023-05-19 20:00",23.189,"Approved","OW261"
"2023-05-19 21:00",23.139,"Approved","OW261"
"2023-05-19 22:00",23.183,"Approved","OW261"
"2023-05-19 23:00",23.182,"Approved","OW261"
"2023-05-20 00:00",23.133,"Approved","OW261"
"2023-05-20 01:00",23.176,"Approved","OW261"
"2023-05-20 02:00",23.182,"Approved","OW261"
"2023-05-20 03:00",23.13,"Approved","OW261"
"2023-05-20 04:00",23.174,"Approved","OW261"
"2023-05-20 05:00",23.182,"Approved","OW261"
"2023-05-20 06:00",23.132,"Approved","OW261"
"2023-05-20 07:00",23.176,"Approved","OW261"
"2023-05-20 08:00",23.181,"Approved","OW261"
"2023-05-20 09:00",23.184,"Approved","OW261"
"2023-05-20 10:00",23.184,"Approved","OW261"
"2023-05-20 11:00",23.121,"Approved","OW261"
"2023-05-20 12:00",23.168,"Approved","OW261"
"2023-05-20 13:00",23.172,"Approved","OW261"
"2023-05-20 14:00",23.172,"Approved","OW261"
"2023-05-20 15:00",23.126,"Approved","OW261"
"2023-05-20 16:00",23.16,"Approved","OW261"
"2023-05-20 17:00",23.167,"Approved","OW261"
"2023-05-20 18:00",23.172,"Approved","OW261"
"2023-05-20 19:00",23.139,"Approved","OW261"
"2023-05-20 20:00",23.11,"Approved","OW261"
"2023-05-20 21:00",23.174,"Approved","OW261"
"2023-05-20 22:00",23.18,"Approved","OW261"
"2023-05-20 23:00",23.112,"Approved","OW261"
"2023-05-21 00:00",23.163,"Approved","OW261"
"2023-05-21 01:00",23.171,"Approved","OW261"
"2023-05-21 02:00",23.114,"Approved","OW261"
"2023-05-21 03:00",23.167,"Approved","OW261"
"2023-05-21 04:00",23.171,"Approved","OW261"
"2023-05-21 05:00",23.106,"Approved","OW261"
"2023-05-21 06:00",23.162,"Approved","OW261"
"2023-05-21 07:00",23.165,"Approved","OW261"
"2023-05-21 08:00",23.112,"Approved","OW261"
"2023-05-21 09:00",23.154,"Approved","OW261"
"2023-05-21 10:00",23.16,"Approved","OW261"
"2023-05-21 11:00",23.11,"Approved","OW261"
"2023-05-21 12:00",23.149,"Approved","OW261"
"2023-05-21 13:00",23.15,"Approved","OW261"
"2023-05-21 14:00",23.153,"Approved","OW261"
"2023-05-21 15:00",23.108,"Approved","OW261"
"2023-05-21 16:00",23.158,"Approved","OW261"
"2023-05-21 17:00",23.163,"Approved","OW261"
"2023-05-21 18:00",23.113,"Approved","OW261"
"2023-05-21 19:00",23.152,"Approved","OW261"
"2023-05-21 20:00",23.166,"Approved","OW261"
"2023-05-21 21:00",23.165,"Approved","OW261"
"2023-05-21 22:00",23.108,"Approved","OW261"
"2023-05-21 23:00",23.146,"Approved","OW261"
"2023-05-22 00:00",23.155,"Approved","OW261"
"2023-05-22 01:00",23.099,"Approved","OW261"
"2023-05-22 02:00",23.146,"Approved","OW261"
"2023-05-22 03:00",23.155,"Approved","OW261"
"2023-05-22 04:00",23.09,"Approved","OW261"
"2023-05-22 05:00",23.143,"Approved","OW261"
"2023-05-22 06:00",23.15,"Approved","OW261"
"2023-05-22 07:00",23.093,"Approved","OW261"
"2023-05-22 08:00",23.146,"Approved","OW261"
"2023-05-22 09:00",23.151,"Approved","OW261"
"2023-05-22 10:00",23.157,"Approved","OW261"
"2023-05-22 11:00",23.093,"Approved","OW261"
"2023-05-22 12:00",23.144,"Approved","OW261"
"2023-05-22 13:00",23.149,"Approved","OW261"
"2023-05-22 14:00",23.158,"Approved","OW261"
"2023-05-22 15:00",23.109,"Approved","OW261"
"2023-05-22 16:00",23.141,"Approved","OW261"
"2023-05-22 17:00",23.156,"Approved","OW261"
"2023-05-22 18:00",23.154,"Approved","OW261"
"2023-05-22 19:00",23.102,"Approved","OW261"
"2023-05-22 20:00",23.141,"Approved","OW261"
"2023-05-22 21:00",23.147,"Approved","OW261"
"2023-05-22 22:00",23.093,"Approved","OW261"
"2023-05-22 23:00",23.132,"Approved","OW261"
"2023-05-23 00:00",23.14,"Approved","OW261"
"2023-05-23 01:00",23.081,"Approved","OW261"
"2023-05-23 02:00",23.127,"Approved","OW261"
"2023-05-23 03:00",23.139,"Approved","OW261"
"2023-05-23 04:00",23.077,"Approved","OW261"
"2023-05-23 05:00",23.129,"Approved","OW261"
"2023-05-23 06:00",23.138,"Approved","OW261"
"2023-05-23 07:00",23.086,"Approved","OW261"
"2023-05-23 08:00",23.131,"Approved","OW261"
"2023-05-23 09:00",23.135,"Approved","OW261"
"2023-05-23 10:00",23.079,"Approved","OW261"
"2023-05-23 11:00",23.129,"Approved","OW261"
"2023-05-23 12:00",23.138,"Approved","OW261"
"2023-05-23 13:00",23.08,"Approved","OW261"
"2023-05-23 14:00",23.13,"Approved","OW261"
"2023-05-23 15:00",23.139,"Approved","OW261"
"2023-05-23 16:00",23.088,"Approved","OW261"
"2023-05-23 17:00",23.125,"Approved","OW261"
"2023-05-23 18:00",23.136,"Approved","OW261"
"2023-05-23 19:00",23.102,"Approved","OW261"
"2023-05-23 20:00",23.078,"Approved","OW261"
"2023-05-23 21:00",23.133,"Approved","OW261"
"2023-05-23 22:00",23.136,"Approved","OW261"
"2023-05-23 23:00",23.072,"Approved","OW261"
"2023-05-24 00:00",23.127,"Approved","OW261"
"2023-05-24 01:00",23.082,"Approved","OW261"
"2023-05-24 02:00",23.067,"Approved","OW261"
"2023-05-24 03:00",23.127,"Approved","OW261"
"2023-05-24 04:00",23.078,"Approved","OW261"
"2023-05-24 05:00",23.113,"Approved","OW261"
"2023-05-24 06:00",23.13,"Approved","OW261"
"2023-05-24 07:00",23.135,"Approved","OW261"
"2023-05-24 08:00",23.074,"Approved","OW261"
"2023-05-24 09:00",23.12,"Approved","OW261"
"2023-05-24 10:00",23.121,"Approved","OW261"
"2023-05-24 11:00",23.069,"Approved","OW261"
"2023-05-24 12:00",23.111,"Approved","OW261"
"2023-05-24 13:00",23.118,"Approved","OW261"
"2023-05-24 14:00",23.09,"Approved","OW261"
"2023-05-24 15:00",23.059,"Approved","OW261"
"2023-05-24 16:00",23.117,"Approved","OW261"
"2023-05-24 17:00",23.123,"Approved","OW261"
"2023-05-24 18:00",23.071,"Approved","OW261"
"2023-05-24 19:00",23.115,"Approved","OW261"
"2023-05-24 20:00",23.122,"Approved","OW261"
"2023-05-24 21:00",23.127,"Approved","OW261"
"2023-05-24 22:00",23.059,"Approved","OW261"
"2023-05-24 23:00",23.114,"Approved","OW261"
"2023-05-25 00:00",23.073,"Approved","OW261"
"2023-05-25 01:00",23.055,"Approved","OW261"
"2023-05-25 02:00",23.114,"Approved","OW261"
"2023-05-25 03:00",23.067,"Approved","OW261"
"2023-05-25 04:00",23.049,"Approved","OW261"
"2023-05-25 05:00",23.11,"Approved","OW261"
"2023-05-25 06:00",23.119,"Approved","OW261"
"2023-05-25 07:00",23.055,"Approved","OW261"
"2023-05-25 08:00",23.111,"Approved","OW261"
"2023-05-25 09:00",23.111,"Approved","OW261"
"2023-05-25 10:00",23.051,"Approved","OW261"
"2023-05-25 11:00",23.107,"Approved","OW261"
"2023-05-25 12:00",23.103,"Approved","OW261"
"2023-05-25 13:00",23.048,"Approved","OW261"
"2023-05-25 14:00",23.097,"Approved","OW261"
"2023-05-25 15:00",23.107,"Approved","OW261"
"2023-05-25 16:00",23.109,"Approved","OW261"
"2023-05-25 17:00",23.086,"Approved","OW261"
"2023-05-25 18:00",23.105,"Approved","OW261"
"2023-05-25 19:00",23.109,"Approved","OW261"
"2023-05-25 20:00",23.117,"Approved","OW261"
"2023-05-25 21:00",23.117,"Approved","OW261"
"2023-05-25 22:00",23.063,"Approved","OW261"
"2023-05-25 23:00",23.105,"Approved","OW261"
"2023-05-26 00:00",23.113,"Approved","OW261"
"2023-05-26 01:00",23.066,"Approved","OW261"
"2023-05-26 02:00",23.098,"Approved","OW261"
"2023-05-26 03:00",23.106,"Approved","OW261"
"2023-05-26 04:00",23.058,"Approved","OW261"
"2023-05-26 05:00",23.088,"Approved","OW261"
"2023-05-26 06:00",23.105,"Approved","OW261"
"2023-05-26 07:00",23.109,"Approved","OW261"
"2023-05-26 08:00",23.053,"Approved","OW261"
"2023-05-26 09:00",23.095,"Approved","OW261"
"2023-05-26 10:00",23.102,"Approved","OW261"
"2023-05-26 11:00",23.099,"Approved","OW261"
"2023-05-26 12:00",23.041,"Approved","OW261"
"2023-05-26 13:00",23.088,"Approved","OW261"
"2023-05-26 14:00",23.097,"Approved","OW261"
"2023-05-26 15:00",23.101,"Approved","OW261"
"2023-05-26 16:00",23.034,"Approved","OW261"
"2023-05-26 17:00",23.092,"Approved","OW261"
"2023-05-26 18:00",23.099,"Approved","OW261"
"2023-05-26 19:00",23.104,"Approved","OW261"
"2023-05-26 20:00",23.11,"Approved","OW261"
"2023-05-26 21:00",23.052,"Approved","OW261"
"2023-05-26 22:00",23.097,"Approved","OW261"
"2023-05-26 23:00",23.101,"Approved","OW261"
"2023-05-27 00:00",23.055,"Approved","OW261"
"2023-05-27 01:00",23.038,"Approved","OW261"
"2023-05-27 02:00",23.097,"Approved","OW261"
"2023-05-27 03:00",23.04,"Approved","OW261"
"2023-05-27 04:00",23.082,"Approved","OW261"
"2023-05-27 05:00",23.093,"Approved","OW261"
"2023-05-27 06:00",23.098,"Approved","OW261"
"2023-05-27 07:00",23.033,"Approved","OW261"
"2023-05-27 08:00",23.088,"Approved","OW261"
"2023-05-27 09:00",23.092,"Approved","OW261"
"2023-05-27 10:00",23.035,"Approved","OW261"
"2023-05-27 11:00",23.081,"Approved","OW261"
"2023-05-27 12:00",23.085,"Approved","OW261"
"2023-05-27 13:00",23.061,"Approved","OW261"
"2023-05-27 14:00",23.07,"Approved","OW261"
"2023-05-27 15:00",23.088,"Approved","OW261"
"2023-05-27 16:00",23.087,"Approved","OW261"
"2023-05-27 17:00",23.03,"Approved","OW261"
"2023-05-27 18:00",23.081,"Approved","OW261"
"2023-05-27 19:00",23.087,"Approved","OW261"
"2023-05-27 20:00",23.049,"Approved","OW261"
"2023-05-27 21:00",23.031,"Approved","OW261"
"2023-05-27 22:00",23.088,"Approved","OW261"
"2023-05-27 23:00",23.042,"Approved","OW261"
"2023-05-28 00:00",23.023,"Approved","OW261"
"2023-05-28 01:00",23.08,"Approved","OW261"
"2023-05-28 02:00",23.038,"Approved","OW261"
"2023-05-28 03:00",23.028,"Approved","OW261"
"2023-05-28 04:00",23.083,"Approved","OW261"
"2023-05-28 05:00",23.042,"Approved","OW261"
"2023-05-28 06:00",23.067,"Approved","OW261"
"2023-05-28 07:00",23.084,"Approved","OW261"
"2023-05-28 08:00",23.087,"Approved","OW261"
"2023-05-28 09:00",23.039,"Approved","OW261"
"2023-05-28 10:00",23.072,"Approved","OW261"
"2023-05-28 11:00",23.078,"Approved","OW261"
"2023-05-28 12:00",23.081,"Approved","OW261"
"2023-05-28 13:00",23.032,"Approved","OW261"
"2023-05-28 14:00",23.066,"Approved","OW261"
"2023-05-28 15:00",23.072,"Approved","OW261"
"2023-05-28 16:00",23.071,"Approved","OW261"
"2023-05-28 17:00",23.075,"Approved","OW261"
"2023-05-28 18:00",23.084,"Approved","OW261"